Regional Weather Roundup
Issued by NWS

Home | Current Version | Previous Version | Graphics & Text | Print | Product List | Glossary Off
Versions: 1 2 3 4 5 6 7 8 9 10 11 12 13 14 15 16 17 18 19 20 21 22 23 24 25 26 27 28 29 30 31 32 33 34 35 36 37 38 39 40 41 42 43 44 45 46 47 48 49 50

000
ASUS43 KTOP 201559
RWRKS

WEATHER ROUNDUP FOR KANSAS
NATIONAL WEATHER SERVICE GOODLAND KS
1000 AM CST MON FEB 20 2017

NOTE:  "FAIR" INDICATES FEW OR NO CLOUDS BELOW 12,000 FEET WITH NO
SIGNIFICANT WEATHER AND/OR OBSTRUCTIONS TO VISIBILITY.

KSZ001>006-013>018-027>032-041>047-201700-
NORTHWEST KANSAS

CITY           SKY/WX    TMP DP  RH WIND       PRES   REMARKS
GOODLAND       SUNNY     53  18  25 NW35G41   29.89R
HAYS           PTSUNNY   55  42  61 NW15G21   29.81R
HILL CITY      MOSUNNY   57  34  41 NW18G25   29.82R
RUSSELL        PTSUNNY   53  48  83 W10       29.78R
$$

KSZ061>065-074>080-084>089-201700-
SOUTHWEST KANSAS

CITY           SKY/WX    TMP DP  RH WIND       PRES   REMARKS
DODGE CITY     SUNNY     58  32  37 N24G37    29.85R
ELKHART          N/A     53  21  28 NW18        N/A
GARDEN CITY    MOSUNNY   57  20  23 N29G38    29.88R
GREAT BEND     CLOUDY    54  46  74 W13       29.81R
LIBERAL        SUNNY     55  30  38 NW28G35   29.91R
$$

KSZ066>073-081>083-090>101-201700-
SOUTHEAST KANSAS

CITY           SKY/WX    TMP DP  RH WIND       PRES   REMARKS
CHANUTE        CLOUDY    63  58  83 SE13      29.81R
COFFEYVILLE    CLOUDY    62  59  90 S14       29.84R
HUTCHINSON     CLOUDY    56  53  90 S13       29.81R
MEDICINE LODGE   N/A     54  51  90 S7        29.82R
NEWTON         CLOUDY    56  53  90 S15       29.81R
PARSONS        CLOUDY    62  59  90 SE9       29.83R
WICHITA INTL   CLOUDY    57  54  89 S10       29.81R
WICHITA JABRA  CLOUDY    57  54  89 S13       29.82R
WINFIELD       CLOUDY    58  54  86 S9        29.85R
$$

KSZ007>012-019>026-033>040-048>060-102>105-201700-
NORTHEAST KANSAS

CITY           SKY/WX    TMP DP  RH WIND       PRES   REMARKS
CONCORDIA      PTSUNNY   58  56  93 S13       29.76F
EMPORIA        CLOUDY    59  58  96 SW9       29.84R
LAWRENCE       CLOUDY    63  57  81 SE9       29.80F
MANHATTAN      CLOUDY    60  57  89 S7        29.80R
OLATHE IND     CLOUDY    60  57  89 SE12      29.81F
OLATHE EXE     CLOUDY    59  58  96 S14       29.80F
SALINA         CLOUDY    60  55  83 S12       29.78F
TOPEKA BILLARD CLOUDY    62  57  83 S8        29.80S
TOPEKA FORBES  CLOUDY    63  58  83 S12       29.81R
$$



USA.gov is the U.S. government's official web portal to all federal, state and local government web resources and services.